Change the Weather History Date:

Saturday, December 14, 2013

  Actual Average Record
Temperature  
Mean Temperature 55 °F 49 °F  
Max Temperature 68 °F 59 °F 75 °F (2001)
Min Temperature 42 °F 39 °F 22 °F (2010)
Degree Days  
Heating Degree Days 10 16  
Month to date heating degree days 178 205  
Since 1 July heating degree days 591 566  
Cooling Degree Days 0 0  
Month to date cooling degree days 3 0  
Year to date cooling degree days 1843 1899  
Growing Degree Days 6 (Base 50)    
Moisture  
Dew Point 55 °F    
Average Humidity 77    
Maximum Humidity 93    
Minimum Humidity 60    
Precipitation  
Precipitation 0.20 in 0.12 in 1.40 in (2003)
Month to date precipitation 0.65 1.68  
Year to date precipitation 47.63 50.23  
Sea Level Pressure  
Sea Level Pressure 29.97 in    
Wind  
Wind Speed 10 mph (South)    
Max Wind Speed 22 mph    
Max Gust Speed 33 mph    
Visibility 8 miles    
Events Rain    
T = Trace of Precipitation, MM = Missing Value Source: NWS Daily Summary

Daily Weather History Graph

Daily Weather History Graph

Search for Another Location

Airport or City:

Trip Planner

Search our weather history database for the weather conditions in past years. The results will help you decide how hot, cold, wet, or windy it might be!

Date:

Astronomy

Dec. 14, 2013 Rise Set
Actual Time 7:11 AM EST 5:07 PM EST
Civil Twilight 6:44 AM EST 5:35 PM EST
Nautical Twilight 6:13 AM EST 6:06 PM EST
Astronomical Twilight 5:42 AM EST 6:36 PM EST
Moon 3:23 PM EST (12/14) 4:35 AM EST (12/14)
Length of Visible Light 10h 50m
Length of Day
9h 55m
Waxing Gibbous, 93% of the Moon is Illuminated
Dec 14
Waxing Gibbous
Dec 17
Full
Dec 25
Last Quarter
Jan 1
New
Jan 7
First Quarter

Hourly Weather History & Observations

Time (EST) Temp. Windchill Dew Point Humidity Pressure Visibility Wind Dir Wind Speed Gust Speed Precip Events Conditions
12:53 AM 44.1 °F 40.8 °F 34.0 °F 68% 30.27 in 10.0 mi NE 5.8 mph - N/A   Overcast
1:53 AM 46.9 °F - 34.0 °F 61% 30.26 in 10.0 mi NNE 5.8 mph - N/A   Overcast
2:53 AM 46.9 °F - 34.0 °F 61% 30.24 in 10.0 mi NE 6.9 mph - N/A   Overcast
3:53 AM 48.9 °F - 35.1 °F 59% 30.24 in 10.0 mi NE 6.9 mph - N/A   Overcast
4:53 AM 48.9 °F - 35.1 °F 59% 30.24 in 10.0 mi NE 5.8 mph - N/A   Overcast
5:53 AM 48.9 °F - 37.9 °F 66% 30.22 in 10.0 mi NE 8.1 mph - N/A   Mostly Cloudy
6:53 AM 51.1 °F - 42.1 °F 71% 30.20 in 10.0 mi NE 8.1 mph - N/A   Overcast
7:53 AM 55.0 °F - 44.1 °F 67% 30.20 in 10.0 mi ENE 9.2 mph - N/A   Overcast
8:53 AM 57.9 °F - 46.0 °F 65% 30.19 in 10.0 mi ENE 11.5 mph 19.6 mph N/A   Overcast
9:53 AM 57.0 °F - 51.1 °F 81% 30.18 in 10.0 mi NE 9.2 mph - 0.03 in   Overcast
10:53 AM 57.0 °F - 53.1 °F 87% 30.14 in 10.0 mi NNW 5.8 mph - 0.00 in   Overcast
11:53 AM 66.0 °F - 55.9 °F 70% 30.08 in 10.0 mi South 6.9 mph - N/A   Partly Cloudy
12:53 PM 66.0 °F - 57.0 °F 73% 30.01 in 10.0 mi SSE 11.5 mph 19.6 mph N/A   Scattered Clouds
1:53 PM 66.9 °F - 57.9 °F 73% 29.96 in 10.0 mi SSE 13.8 mph 21.9 mph N/A   Overcast
2:53 PM 64.9 °F - 59.0 °F 81% 29.91 in 10.0 mi SSE 10.4 mph 19.6 mph 0.00 in Rain Light Rain
3:53 PM 64.0 °F - 57.9 °F 80% 29.88 in 10.0 mi South 12.7 mph - 0.00 in   Overcast
4:51 PM 62.6 °F - 60.8 °F 94% 29.85 in 2.5 mi South 13.8 mph - 0.04 in Rain Rain
4:53 PM 63.0 °F - 61.0 °F 93% 29.85 in 2.0 mi South 12.7 mph - 0.05 in Rain Rain
5:00 PM 62.6 °F - 60.8 °F 94% 29.85 in 3.0 mi South 16.1 mph 23.0 mph 0.01 in Rain Light Rain
5:07 PM 64.4 °F - 60.8 °F 88% 29.86 in 4.0 mi South 18.4 mph 23.0 mph 0.03 in Rain Rain
5:34 PM 62.6 °F - 60.8 °F 94% 29.86 in 3.0 mi SSW 16.1 mph 31.1 mph 0.09 in Rain Heavy Rain
5:53 PM 64.0 °F - 62.1 °F 93% 29.86 in 6.0 mi SSW 19.6 mph 25.3 mph 0.09 in Rain Light Rain
6:02 PM 64.4 °F - 62.6 °F 94% 29.86 in 6.0 mi South 15.0 mph 24.2 mph N/A   Overcast
6:09 PM 64.4 °F - 62.6 °F 94% 29.86 in 5.0 mi South 17.3 mph 24.2 mph N/A   Overcast
6:21 PM 64.4 °F - 62.6 °F 94% 29.85 in 5.0 mi South 12.7 mph 24.2 mph N/A   Overcast
6:53 PM 64.0 °F - 62.1 °F 93% 29.85 in 6.0 mi SW 13.8 mph - 0.00 in   Overcast
7:05 PM 62.6 °F - 60.8 °F 94% 29.84 in 4.0 mi SSW 9.2 mph - N/A   Overcast
7:27 PM 62.6 °F - 62.6 °F 100% 29.84 in 5.0 mi SW 9.2 mph - 0.00 in Rain Light Rain
7:53 PM 68.0 °F - 64.9 °F 90% 29.84 in 10.0 mi SW 16.1 mph - 0.00 in Rain Light Rain
8:37 PM 64.4 °F - 62.6 °F 94% 29.84 in 7.0 mi SSW 12.7 mph - 0.02 in Rain Light Rain
8:53 PM 64.0 °F - 63.0 °F 96% 29.83 in 6.0 mi SSW 8.1 mph - 0.02 in Rain Light Rain
9:05 PM 64.4 °F - 62.6 °F 94% 29.83 in 6.0 mi SSW 8.1 mph - 0.00 in Rain Light Rain
9:53 PM 63.0 °F - 61.0 °F 93% 29.81 in 6.0 mi SW 13.8 mph - 0.01 in Rain Light Rain
10:14 PM 64.4 °F - 62.6 °F 94% 29.81 in 8.0 mi SW 11.5 mph - 0.00 in Rain Light Rain
10:53 PM 64.0 °F - 62.1 °F 93% 29.79 in 8.0 mi SW 6.9 mph - 0.00 in Rain Light Rain
11:20 PM 68.0 °F - 64.4 °F 88% 29.79 in 10.0 mi WSW 9.2 mph - 0.00 in   Overcast
11:53 PM 68.0 °F - 63.0 °F 84% 29.78 in 10.0 mi WSW 10.4 mph 19.6 mph 0.00 in   Overcast